When you browse on this site, cookies collect data to enhance your experience and personalize the content and advertising you see.
Visit our Privacy Policy to learn more. By continuing to use the site, you agree to this use of cookies and data.
  • In Portugal
  • List of Countries
  • For 7 days
  • Water Temperature
  • Weather Map
  • Weather Widgets
  • user-avatar
    Login

    Hourly Weather Salgotarjan

    Today, 22 September, Sunday

    Time Temperature Precipitation Wind Pressure Humidity
    00:00 +8°C° 0 mm 0 mps 736 mmHg 62%
    01:00 +8°C° 0 mm 0 mps 736 mmHg 64%
    02:00 +7°C° 0 mm 0 mps 736 mmHg 65%
    03:00 +7°C° 0 mm 0 mps 736 mmHg 66%
    04:00 +7°C° 0 mm 0 mps 735 mmHg 67%
    05:00 +8°C° 0 mm 0 mps 735 mmHg 65%
    06:00 +9°C° 0 mm 0 mps 735 mmHg 63%
    07:00 +10°C° 0 mm 0 mps 736 mmHg 57%
    08:00 +13°C° 0 mm 1 mps 736 mmHg 50%
    09:00 +15°C° 0 mm 1 mps 735 mmHg 43%
    10:00 +17°C° 0 mm 2 mps 735 mmHg 36%
    11:00 +18°C° 0 mm 2 mps 735 mmHg 34%
    12:00 +19°C° 0 mm 2 mps 734 mmHg 32%
    13:00 +20°C° 0 mm 2 mps 734 mmHg 30%
    14:00 +20°C° 0 mm 2 mps 733 mmHg 32%
    15:00 +20°C° 0 mm 2 mps 732 mmHg 34%
    16:00 +19°C° 0 mm 2 mps 732 mmHg 35%
    17:00 +17°C° 0 mm 2 mps 732 mmHg 39%
    18:00 +15°C° 0 mm 1 mps 732 mmHg 43%
    19:00 +13°C° 0 mm 1 mps 731 mmHg 47%
    20:00 +13°C° 0 mm 1 mps 731 mmHg 48%
    21:00 +13°C° 0 mm 1 mps 731 mmHg 48%
    22:00 +12°C° 0 mm 1 mps 731 mmHg 49%
    23:00 +12°C° 0 mm 1 mps 731 mmHg 49%

    Tomorrow, 23 September, Monday

    Time Temperature Precipitation Wind Pressure Humidity
    00:00 +12°C° 0 mm 1 mps 731 mmHg 50%
    01:00 +12°C° 0 mm 1 mps 731 mmHg 50%
    02:00 +12°C° 0 mm 1 mps 731 mmHg 50%
    03:00 +12°C° 0 mm 1 mps 730 mmHg 51%
    04:00 +12°C° 0 mm 1 mps 730 mmHg 51%
    05:00 +12°C° 0.1 mm 1 mps 730 mmHg 54%
    06:00 +13°C° 0.1 mm 1 mps 730 mmHg 56%
    07:00 +13°C° 0.1 mm 2 mps 730 mmHg 59%
    08:00 +13°C° 0.2 mm 2 mps 730 mmHg 63%
    09:00 +13°C° 0.2 mm 2 mps 731 mmHg 66%
    10:00 +13°C° 0.2 mm 2 mps 731 mmHg 70%
    11:00 +14°C° 0.1 mm 2 mps 731 mmHg 69%
    12:00 +14°C° 0.1 mm 2 mps 731 mmHg 68%
    13:00 +15°C° 0.1 mm 1 mps 730 mmHg 68%
    14:00 +15°C° 0 mm 1 mps 730 mmHg 66%
    15:00 +15°C° 0 mm 1 mps 730 mmHg 64%
    16:00 +15°C° 0 mm 0 mps 730 mmHg 62%
    17:00 +14°C° 0 mm 0 mps 730 mmHg 65%
    18:00 +12°C° 0 mm 0 mps 730 mmHg 69%
    19:00 +11°C° 0 mm 0 mps 730 mmHg 73%
    20:00 +11°C° 0 mm 0 mps 730 mmHg 74%
    21:00 +11°C° 0 mm 0 mps 731 mmHg 75%
    22:00 +11°C° 0 mm 1 mps 731 mmHg 75%
    23:00 +11°C° 0 mm 1 mps 731 mmHg 76%

    Day after tomorrow, 24 September, Tuesday

    Time Temperature Precipitation Wind Pressure Humidity
    00:00 +11°C° 0 mm 1 mps 730 mmHg 77%
    01:00 +11°C° 0 mm 1 mps 730 mmHg 78%
    02:00 +11°C° 0 mm 1 mps 730 mmHg 79%
    03:00 +11°C° 0 mm 1 mps 730 mmHg 80%
    04:00 +11°C° 0 mm 1 mps 730 mmHg 81%
    05:00 +12°C° 0 mm 1 mps 730 mmHg 79%
    06:00 +12°C° 0 mm 0 mps 730 mmHg 77%
    07:00 +12°C° 0 mm 0 mps 730 mmHg 74%
    08:00 +15°C° 0 mm 0 mps 730 mmHg 66%
    09:00 +19°C° 0 mm 1 mps 730 mmHg 57%
    10:00 +21°C° 0 mm 1 mps 730 mmHg 48%
    11:00 +23°C° 0 mm 1 mps 730 mmHg 44%
    12:00 +24°C° 0 mm 1 mps 730 mmHg 40%
    13:00 +25°C° 0 mm 1 mps 730 mmHg 36%
    14:00 +24°C° 0 mm 1 mps 729 mmHg 37%
    15:00 +24°C° 0 mm 1 mps 729 mmHg 39%
    16:00 +23°C° 0 mm 1 mps 728 mmHg 41%
    17:00 +21°C° 0 mm 1 mps 728 mmHg 46%
    18:00 +19°C° 0 mm 1 mps 728 mmHg 51%
    19:00 +15°C° 0 mm 0 mps 728 mmHg 57%
    20:00 +14°C° 0 mm 0 mps 728 mmHg 58%
    21:00 +14°C° 0 mm 0 mps 728 mmHg 59%
    22:00 +13°C° 0 mm 0 mps 729 mmHg 60%
    23:00 +13°C° 0 mm 0 mps 728 mmHg 61%

    25 September, Wednesday

    Time Temperature Precipitation Wind Pressure Humidity
    00:00 +13°C° 0 mm 0 mps 728 mmHg 61%
    01:00 +13°C° 0 mm 0 mps 728 mmHg 62%
    02:00 +12°C° 0 mm 0 mps 728 mmHg 64%
    03:00 +12°C° 0 mm 0 mps 728 mmHg 66%
    04:00 +11°C° 0 mm 0 mps 728 mmHg 69%
    05:00 +12°C° 0 mm 0 mps 728 mmHg 69%
    06:00 +12°C° 0 mm 0 mps 728 mmHg 69%
    07:00 +13°C° 0 mm 0 mps 728 mmHg 69%
    08:00 +15°C° 0 mm 1 mps 728 mmHg 64%
    09:00 +18°C° 0 mm 1 mps 729 mmHg 59%
    10:00 +20°C° 0 mm 1 mps 729 mmHg 54%
    11:00 +21°C° 0 mm 1 mps 729 mmHg 53%
    12:00 +20°C° 0 mm 2 mps 728 mmHg 51%
    13:00 +21°C° 0 mm 2 mps 728 mmHg 49%
    14:00 +21°C° 0.1 mm 2 mps 728 mmHg 52%
    15:00 +20°C° 0.1 mm 2 mps 728 mmHg 56%
    16:00 +20°C° 0.1 mm 2 mps 727 mmHg 59%
    17:00 +19°C° 0.1 mm 1 mps 727 mmHg 66%
    18:00 +18°C° 0.1 mm 1 mps 727 mmHg 72%
    19:00 +15°C° 0.1 mm 1 mps 727 mmHg 79%
    20:00 +15°C° 0.1 mm 1 mps 728 mmHg 81%
    21:00 +15°C° 0.1 mm 1 mps 728 mmHg 83%
    22:00 +15°C° 0.1 mm 1 mps 728 mmHg 86%
    23:00 +14°C° 0.1 mm 1 mps 728 mmHg 87%

    26 September, Thursday

    Time Temperature Precipitation Wind Pressure Humidity
    00:00 +14°C° 0.1 mm 1 mps 728 mmHg 88%
    01:00 +13°C° 0.1 mm 0 mps 728 mmHg 89%
    02:00 +14°C° 0.2 mm 1 mps 728 mmHg 90%
    03:00 +14°C° 0.2 mm 1 mps 728 mmHg 91%
    04:00 +14°C° 0.2 mm 1 mps 729 mmHg 92%
    05:00 +13°C° 0.8 mm 1 mps 729 mmHg 93%
    06:00 +13°C° 0.8 mm 1 mps 729 mmHg 94%
    07:00 +13°C° 0.8 mm 1 mps 729 mmHg 94%
    08:00 +14°C° 0.5 mm 1 mps 729 mmHg 91%
    09:00 +14°C° 0.5 mm 1 mps 729 mmHg 88%
    10:00 +15°C° 0.5 mm 1 mps 730 mmHg 85%
    11:00 +16°C° 0.1 mm 2 mps 730 mmHg 76%
    12:00 +18°C° 0.1 mm 2 mps 730 mmHg 67%
    13:00 +19°C° 0.1 mm 2 mps 730 mmHg 58%
    14:00 +19°C° 0.2 mm 2 mps 730 mmHg 59%
    15:00 +19°C° 0.2 mm 2 mps 730 mmHg 59%
    16:00 +19°C° 0.2 mm 2 mps 730 mmHg 60%
    17:00 +17°C° 0.1 mm 2 mps 730 mmHg 66%
    18:00 +15°C° 0.1 mm 2 mps 731 mmHg 72%
    19:00 +14°C° 0.1 mm 1 mps 731 mmHg 79%
    20:00 +13°C° 0 mm 1 mps 731 mmHg 81%
    21:00 +12°C° 0 mm 1 mps 732 mmHg 84%
    22:00 +12°C° 0 mm 1 mps 732 mmHg 87%
    23:00 +11°C° 0 mm 1 mps 732 mmHg 88%

    27 September, Friday

    Time Temperature Precipitation Wind Pressure Humidity
    00:00 +11°C° 0 mm 1 mps 732 mmHg 89%
    01:00 +11°C° 0 mm 1 mps 732 mmHg 90%
    02:00 +11°C° 0 mm 1 mps 733 mmHg 91%
    03:00 +9°C° 0 mm 0 mps 733 mmHg 91%
    04:00 +9°C° 0 mm 0 mps 733 mmHg 92%
    05:00 +10°C° 0 mm 0 mps 733 mmHg 89%
    06:00 +10°C° 0 mm 0 mps 733 mmHg 87%
    07:00 +11°C° 0 mm 0 mps 733 mmHg 84%
    08:00 +13°C° 0 mm 0 mps 734 mmHg 76%
    09:00 +18°C° 0 mm 1 mps 734 mmHg 67%
    10:00 +20°C° 0 mm 1 mps 735 mmHg 59%
    11:00 +21°C° 0 mm 1 mps 734 mmHg 55%
    12:00 +21°C° 0 mm 1 mps 734 mmHg 51%
    13:00 +21°C° 0 mm 2 mps 734 mmHg 47%
    14:00 +22°C° 0 mm 1 mps 734 mmHg 49%
    15:00 +22°C° 0 mm 1 mps 733 mmHg 51%
    16:00 +22°C° 0 mm 1 mps 733 mmHg 53%
    17:00 +20°C° 0 mm 1 mps 733 mmHg 59%
    18:00 +18°C° 0 mm 1 mps 733 mmHg 65%
    19:00 +15°C° 0 mm 1 mps 733 mmHg 71%
    20:00 +15°C° 0 mm 1 mps 734 mmHg 73%
    21:00 +14°C° 0 mm 0 mps 734 mmHg 75%
    22:00 +13°C° 0 mm 0 mps 734 mmHg 78%
    23:00 +13°C° 0 mm 0 mps 734 mmHg 79%
    Show more